Location: Newark
(11.6000°N, 43.1667°E)
Time: 02:28:29
(UTC+00:00)

LightSail 2 - Pass Details

Date: 17 September 2019
Orbit: 707 x 722 km, 24.0° (Epoch: 16 October)

Event Time Altitude Azimuth Distance (km) Brightness Sun altitude
Exits shadow 01:40:39 38° 245° (WSW) 1,055 5.5 -19.4°
Maximum altitude 01:42:36 88° 159° (SSE) 704 5.0 -18.9°
Drops below altitude 10° 01:47:44 10° 68° (ENE) 2,164 8.8 -17.7°
Sets 01:50:10 0° 68° (ENE) 3,086 9.9 -17.1°
